Location: Blackrock Ranger Station
(36.0936°N, 118.2611°W)
Time: 05:43:46
(UTC-08:00)

Tiangong - Visible Passes

Search period start: 13 December 2025 00:00
Search period end: 23 December 2025 00:00
Orbit: 384 x 395 km, 41.5° (Epoch: 12 December)

Date Brightness Start Highest point End Pass type
(mag) Time Alt. Az. Time Alt. Az. Time Alt. Az.
19 Dec 0.1 18:04:50 10° S 18:06:28 14° SE 18:06:28 14° SE visible
20 Dec -0.2 18:41:49 10° SW 18:43:29 27° SW 18:43:29 27° SW visible
21 Dec -0.8 17:43:53 10° SSW 17:46:38 27° SSE 17:48:04 19° ESE visible
21 Dec 1.6 19:20:20 10° W 19:20:22 10° W 19:20:22 10° W visible
22 Dec -2.2 18:21:51 10° WSW 18:24:52 80° W 18:24:52 80° W visible
